#datetime,building,power
2023-03-07T00:00:00,pth,4.80
2023-03-07T00:01:00,pth,2.40
2023-03-07T00:03:00,pth,4.80
2023-03-07T00:05:00,pth,3.60
2023-03-07T00:06:00,pth,1.20
2023-03-07T00:08:00,pth,3.60
2023-03-07T00:09:00,pth,1.20
2023-03-07T00:11:00,pth,2.40
2023-03-07T00:13:00,pth,2.40
2023-03-07T00:14:00,pth,1.20
2023-03-07T00:16:00,pth,1.20
2023-03-07T00:18:00,pth,3.60
2023-03-07T00:19:00,pth,1.20
2023-03-07T00:21:00,pth,4.80
2023-03-07T00:22:00,pth,2.40
2023-03-07T00:24:00,pth,3.60
2023-03-07T00:26:00,pth,3.60
2023-03-07T00:28:00,pth,4.80
2023-03-07T00:30:00,pth,2.40
2023-03-07T00:31:00,pth,1.20
2023-03-07T00:33:00,pth,2.40
2023-03-07T00:35:00,pth,2.40
2023-03-07T00:38:00,pth,2.40
2023-03-07T00:40:00,pth,2.40
2023-03-07T00:42:00,pth,3.60
2023-03-07T00:43:00,pth,2.40
2023-03-07T00:45:00,pth,4.80
2023-03-07T00:47:00,pth,3.60
2023-03-07T00:49:00,pth,4.80
2023-03-07T00:51:00,pth,3.60
2023-03-07T00:52:00,pth,2.40
2023-03-07T00:54:00,pth,3.60
2023-03-07T00:56:00,pth,3.60
2023-03-07T00:59:00,pth,2.40
2023-03-07T01:00:00,pth,1.20
2023-03-07T01:02:00,pth,2.40
2023-03-07T01:04:00,pth,2.40
2023-03-07T01:06:00,pth,2.40
2023-03-07T01:08:00,pth,3.60
2023-03-07T01:10:00,pth,4.80
2023-03-07T01:12:00,pth,3.60
2023-03-07T01:14:00,pth,4.80
2023-03-07T01:16:00,pth,4.80
2023-03-07T01:18:00,pth,3.60
2023-03-07T01:20:00,pth,1.20
2023-03-07T01:21:00,pth,1.20
2023-03-07T01:23:00,pth,2.40
2023-03-07T01:24:00,pth,1.20
2023-03-07T01:26:00,pth,2.40
2023-03-07T01:27:00,pth,1.20
2023-03-07T01:29:00,pth,2.40
2023-03-07T01:31:00,pth,2.40
2023-03-07T01:32:00,pth,2.40
2023-03-07T01:34:00,pth,4.80
2023-03-07T01:35:00,pth,2.40
2023-03-07T01:36:00,pth,1.20
2023-03-07T01:38:00,pth,4.80
2023-03-07T01:40:00,pth,3.60
2023-03-07T01:42:00,pth,3.60
2023-03-07T01:44:00,pth,1.20
2023-03-07T01:45:00,pth,1.20
2023-03-07T01:47:00,pth,2.40
2023-03-07T01:49:00,pth,2.40
2023-03-07T01:51:00,pth,2.40
2023-03-07T01:52:00,pth,1.20
2023-03-07T01:54:00,pth,2.40
2023-03-07T01:56:00,pth,4.80
2023-03-07T01:58:00,pth,3.60
2023-03-07T02:00:00,pth,3.60
2023-03-07T02:02:00,pth,4.80
2023-03-07T02:03:00,pth,1.20
2023-03-07T02:05:00,pth,3.60
2023-03-07T02:06:00,pth,1.20
2023-03-07T02:09:00,pth,2.40
2023-03-07T02:10:00,pth,1.20
2023-03-07T02:12:00,pth,2.40
2023-03-07T02:14:00,pth,1.20
2023-03-07T02:16:00,pth,2.40
2023-03-07T02:17:00,pth,2.40
2023-03-07T02:19:00,pth,3.60
2023-03-07T02:20:00,pth,2.40
2023-03-07T02:21:00,pth,1.20
2023-03-07T02:23:00,pth,4.80
2023-03-07T02:24:00,pth,1.20
2023-03-07T02:26:00,pth,3.60
2023-03-07T02:28:00,pth,2.40
2023-03-07T02:30:00,pth,2.40
2023-03-07T02:32:00,pth,2.40
2023-03-07T02:34:00,pth,1.20
2023-03-07T02:36:00,pth,2.40
2023-03-07T02:38:00,pth,2.40
2023-03-07T02:39:00,pth,1.20
2023-03-07T02:41:00,pth,4.80
2023-03-07T02:43:00,pth,4.80
2023-03-07T02:45:00,pth,3.60
2023-03-07T02:47:00,pth,3.60
2023-03-07T02:49:00,pth,4.80
2023-03-07T02:50:00,pth,1.20
2023-03-07T02:52:00,pth,2.40
2023-03-07T02:55:00,pth,2.40
2023-03-07T02:57:00,pth,2.40
2023-03-07T02:58:00,pth,1.20
2023-03-07T02:59:00,pth,1.20
2023-03-07T03:01:00,pth,1.20
2023-03-07T03:02:00,pth,2.40
2023-03-07T03:04:00,pth,3.60
2023-03-07T03:06:00,pth,3.60
2023-03-07T03:07:00,pth,2.40
2023-03-07T03:09:00,pth,3.60
2023-03-07T03:11:00,pth,4.80
2023-03-07T03:12:00,pth,1.20
2023-03-07T03:13:00,pth,1.20
2023-03-07T03:15:00,pth,2.40
2023-03-07T03:17:00,pth,2.40
2023-03-07T03:19:00,pth,1.20
2023-03-07T03:20:00,pth,1.20
2023-03-07T03:22:00,pth,2.40
2023-03-07T03:23:00,pth,1.20
2023-03-07T03:25:00,pth,2.40
2023-03-07T03:27:00,pth,4.80
2023-03-07T03:29:00,pth,3.60
2023-03-07T03:30:00,pth,1.20
2023-03-07T03:32:00,pth,4.80
2023-03-07T03:34:00,pth,3.60
2023-03-07T03:35:00,pth,2.40
2023-03-07T03:37:00,pth,2.40
2023-03-07T03:39:00,pth,1.20
2023-03-07T03:41:00,pth,2.40
2023-03-07T03:43:00,pth,2.40
2023-03-07T03:45:00,pth,2.40
2023-03-07T03:47:00,pth,4.80
2023-03-07T03:48:00,pth,2.40
2023-03-07T03:50:00,pth,3.60
2023-03-07T03:51:00,pth,2.40
2023-03-07T03:53:00,pth,3.60
2023-03-07T03:55:00,pth,3.60
2023-03-07T03:57:00,pth,4.80
2023-03-07T03:58:00,pth,2.40
2023-03-07T04:00:00,pth,2.40
2023-03-07T04:01:00,pth,1.20
2023-03-07T04:03:00,pth,1.20
2023-03-07T04:05:00,pth,2.40
2023-03-07T04:06:00,pth,1.20
2023-03-07T04:08:00,pth,2.40
2023-03-07T04:09:00,pth,2.40
2023-03-07T04:10:00,pth,1.20
2023-03-07T04:11:00,pth,2.40
2023-03-07T04:13:00,pth,3.60
2023-03-07T04:15:00,pth,3.60
2023-03-07T04:16:00,pth,2.40
2023-03-07T04:17:00,pth,1.20
2023-03-07T04:19:00,pth,4.80
2023-03-07T04:21:00,pth,3.60
2023-03-07T04:23:00,pth,3.60
2023-03-07T04:24:00,pth,2.40
2023-03-07T04:26:00,pth,2.40
2023-03-07T04:29:00,pth,2.40
2023-03-07T04:30:00,pth,1.20
2023-03-07T04:32:00,pth,2.40
2023-03-07T04:34:00,pth,2.40
2023-03-07T04:36:00,pth,2.40
2023-03-07T04:37:00,pth,2.40
2023-03-07T04:39:00,pth,3.60
2023-03-07T04:40:00,pth,1.20
2023-03-07T04:42:00,pth,3.60
2023-03-07T04:43:00,pth,2.40
2023-03-07T04:45:00,pth,3.60
2023-03-07T04:47:00,pth,3.60
2023-03-07T04:48:00,pth,2.40
2023-03-07T04:49:00,pth,2.40
2023-03-07T04:51:00,pth,1.20
2023-03-07T04:53:00,pth,2.40
2023-03-07T04:55:00,pth,1.20
2023-03-07T04:56:00,pth,1.20
2023-03-07T04:58:00,pth,2.40
2023-03-07T05:00:00,pth,2.40
2023-03-07T05:02:00,pth,3.60
2023-03-07T05:03:00,pth,2.40
2023-03-07T05:05:00,pth,3.60
2023-03-07T05:06:00,pth,2.40
2023-03-07T05:08:00,pth,4.80
2023-03-07T05:10:00,pth,3.60
2023-03-07T05:12:00,pth,3.60
2023-03-07T05:14:00,pth,3.60
2023-03-07T05:15:00,pth,1.20
2023-03-07T05:18:00,pth,2.40
2023-03-07T05:20:00,pth,2.40
2023-03-07T05:21:00,pth,1.20
2023-03-07T05:23:00,pth,1.20
2023-03-07T05:25:00,pth,3.60
2023-03-07T05:27:00,pth,3.60
2023-03-07T05:28:00,pth,2.40
2023-03-07T05:30:00,pth,3.60
2023-03-07T05:31:00,pth,2.40
2023-03-07T05:32:00,pth,1.20
2023-03-07T05:34:00,pth,3.60
2023-03-07T05:36:00,pth,4.80
2023-03-07T05:38:00,pth,3.60
2023-03-07T05:39:00,pth,1.20
2023-03-07T05:40:00,pth,1.20
2023-03-07T05:42:00,pth,2.40
2023-03-07T05:44:00,pth,1.20
2023-03-07T05:46:00,pth,2.40
2023-03-07T05:47:00,pth,1.20
2023-03-07T05:49:00,pth,1.20
2023-03-07T05:50:00,pth,2.40
2023-03-07T05:51:00,pth,2.40
2023-03-07T05:52:00,pth,1.20
2023-03-07T05:54:00,pth,4.80
2023-03-07T05:55:00,pth,1.20
2023-03-07T05:56:00,pth,2.40
2023-03-07T05:57:00,pth,1.20
2023-03-07T05:59:00,pth,3.60
2023-03-07T06:01:00,pth,3.60
2023-03-07T06:02:00,pth,2.40
2023-03-07T06:04:00,pth,1.20
2023-03-07T06:05:00,pth,1.20
2023-03-07T06:07:00,pth,2.40
2023-03-07T06:10:00,pth,2.40
2023-03-07T06:11:00,pth,1.20
2023-03-07T06:13:00,pth,2.40
2023-03-07T06:15:00,pth,4.80
2023-03-07T06:16:00,pth,1.20
2023-03-07T06:18:00,pth,3.60
2023-03-07T06:20:00,pth,4.80
2023-03-07T06:21:00,pth,1.20
2023-03-07T06:23:00,pth,4.80
2023-03-07T06:24:00,pth,1.20
2023-03-07T06:25:00,pth,2.40
2023-03-07T06:27:00,pth,3.60
2023-03-07T06:29:00,pth,1.20
2023-03-07T06:31:00,pth,1.20
2023-03-07T06:33:00,pth,1.20
2023-03-07T06:34:00,pth,1.20
2023-03-07T06:36:00,pth,2.40
2023-03-07T06:37:00,pth,1.20
2023-03-07T06:38:00,pth,2.40
2023-03-07T06:40:00,pth,3.60
2023-03-07T06:41:00,pth,2.40
2023-03-07T06:43:00,pth,6.00
2023-03-07T06:44:00,pth,2.40
2023-03-07T06:46:00,pth,4.80
2023-03-07T06:48:00,pth,4.80
2023-03-07T06:50:00,pth,3.60
2023-03-07T06:52:00,pth,3.60
2023-03-07T06:54:00,pth,2.40
2023-03-07T06:57:00,pth,2.40
2023-03-07T06:58:00,pth,1.20
2023-03-07T07:00:00,pth,1.20
2023-03-07T07:01:00,pth,1.20
2023-03-07T07:03:00,pth,2.40
2023-03-07T07:04:00,pth,2.40
2023-03-07T07:06:00,pth,2.40
2023-03-07T07:08:00,pth,4.80
2023-03-07T07:10:00,pth,3.60
2023-03-07T07:11:00,pth,2.40
2023-03-07T07:12:00,pth,1.20
2023-03-07T07:14:00,pth,4.80
2023-03-07T07:16:00,pth,3.60
2023-03-07T07:18:00,pth,1.20
2023-03-07T07:21:00,pth,2.40
2023-03-07T07:23:00,pth,1.20
2023-03-07T07:25:00,pth,1.20
2023-03-07T07:26:00,pth,1.20
2023-03-07T07:28:00,pth,3.60
2023-03-07T07:30:00,pth,3.60
2023-03-07T07:31:00,pth,3.60
2023-03-07T07:32:00,pth,3.60
2023-03-07T07:34:00,pth,3.60
2023-03-07T07:36:00,pth,3.60
2023-03-07T07:37:00,pth,1.20
2023-03-07T07:38:00,pth,2.40
2023-03-07T07:40:00,pth,3.60
2023-03-07T07:42:00,pth,3.60
2023-03-07T07:44:00,pth,1.20
2023-03-07T07:47:00,pth,2.40
2023-03-07T07:49:00,pth,1.20
2023-03-07T07:51:00,pth,2.40
2023-03-07T07:53:00,pth,3.60
2023-03-07T07:55:00,pth,6.00
2023-03-07T07:57:00,pth,6.00
2023-03-07T07:59:00,pth,6.00
2023-03-07T08:00:00,pth,2.40
2023-03-07T08:02:00,pth,6.00
2023-03-07T08:04:00,pth,4.80
2023-03-07T08:06:00,pth,6.00
2023-03-07T08:07:00,pth,1.20
2023-03-07T08:08:00,pth,1.20
2023-03-07T08:10:00,pth,2.40
2023-03-07T08:11:00,pth,2.40
2023-03-07T08:13:00,pth,2.40
2023-03-07T08:15:00,pth,3.60
2023-03-07T08:17:00,pth,4.80
2023-03-07T08:18:00,pth,2.40
2023-03-07T08:20:00,pth,4.80
2023-03-07T08:21:00,pth,2.40
2023-03-07T08:23:00,pth,4.80
2023-03-07T08:24:00,pth,1.20
2023-03-07T08:26:00,pth,4.80
2023-03-07T08:28:00,pth,4.80
2023-03-07T08:30:00,pth,3.60
2023-03-07T08:32:00,pth,2.40
2023-03-07T08:33:00,pth,1.20
2023-03-07T08:35:00,pth,2.40
2023-03-07T08:37:00,pth,10.80
2023-03-07T08:39:00,pth,14.40
2023-03-07T08:41:00,pth,15.60
2023-03-07T08:42:00,pth,8.40
2023-03-07T08:44:00,pth,16.80
2023-03-07T08:45:00,pth,7.20
2023-03-07T08:47:00,pth,16.80
2023-03-07T08:48:00,pth,8.40
2023-03-07T08:49:00,pth,7.20
2023-03-07T08:51:00,pth,16.80
2023-03-07T08:53:00,pth,16.80
2023-03-07T08:55:00,pth,15.60
2023-03-07T08:57:00,pth,14.40
2023-03-07T08:58:00,pth,8.40
2023-03-07T09:00:00,pth,14.40
2023-03-07T09:02:00,pth,15.60
2023-03-07T09:03:00,pth,8.40
2023-03-07T09:05:00,pth,16.80
2023-03-07T09:07:00,pth,15.60
2023-03-07T09:09:00,pth,9.60
2023-03-07T09:11:00,pth,15.60
2023-03-07T09:13:00,pth,14.40
2023-03-07T09:14:00,pth,3.60
2023-03-07T09:15:00,pth,8.40
2023-03-07T09:17:00,pth,14.40
2023-03-07T09:19:00,pth,10.80
2023-03-07T09:20:00,pth,7.20
2023-03-07T09:22:00,pth,10.80
2023-03-07T09:24:00,pth,14.40
2023-03-07T09:25:00,pth,6.00
2023-03-07T09:27:00,pth,12.00
2023-03-07T09:29:00,pth,12.00
2023-03-07T09:31:00,pth,13.20
2023-03-07T09:33:00,pth,10.80
2023-03-07T09:35:00,pth,7.20
2023-03-07T09:37:00,pth,4.80
2023-03-07T09:39:00,pth,6.00
2023-03-07T09:41:00,pth,6.00
2023-03-07T09:42:00,pth,2.40
2023-03-07T09:44:00,pth,7.20
2023-03-07T09:45:00,pth,3.60
2023-03-07T09:47:00,pth,7.20
2023-03-07T09:49:00,pth,7.20
2023-03-07T09:51:00,pth,3.60
2023-03-07T09:53:00,pth,3.60
2023-03-07T09:55:00,pth,3.60
2023-03-07T09:56:00,pth,1.20
2023-03-07T09:58:00,pth,3.60
2023-03-07T09:59:00,pth,1.20
2023-03-07T10:01:00,pth,3.60
2023-03-07T10:03:00,pth,4.80
2023-03-07T10:04:00,pth,2.40
2023-03-07T10:06:00,pth,7.20
2023-03-07T10:08:00,pth,8.40
2023-03-07T10:10:00,pth,6.00
2023-03-07T10:11:00,pth,3.60
2023-03-07T10:13:00,pth,4.80
2023-03-07T10:14:00,pth,2.40
2023-03-07T10:15:00,pth,2.40
2023-03-07T10:17:00,pth,3.60
2023-03-07T10:19:00,pth,2.40
2023-03-07T10:21:00,pth,3.60
2023-03-07T10:23:00,pth,2.40
2023-03-07T10:25:00,pth,3.60
2023-03-07T10:27:00,pth,2.40
2023-03-07T10:29:00,pth,3.60
2023-03-07T10:31:00,pth,4.80
2023-03-07T10:32:00,pth,2.40
2023-03-07T10:34:00,pth,4.80
2023-03-07T10:35:00,pth,2.40
2023-03-07T10:37:00,pth,4.80
2023-03-07T10:38:00,pth,2.40
2023-03-07T10:39:00,pth,2.40
2023-03-07T10:40:00,pth,1.20
2023-03-07T10:42:00,pth,2.40
2023-03-07T10:44:00,pth,3.60
2023-03-07T10:46:00,pth,2.40
2023-03-07T10:48:00,pth,2.40
2023-03-07T10:50:00,pth,2.40
2023-03-07T10:51:00,pth,1.20
2023-03-07T10:52:00,pth,1.20
2023-03-07T10:54:00,pth,4.80
2023-03-07T10:55:00,pth,2.40
2023-03-07T10:57:00,pth,4.80
2023-03-07T10:59:00,pth,4.80
2023-03-07T11:01:00,pth,4.80
2023-03-07T11:02:00,pth,2.40
2023-03-07T11:04:00,pth,3.60
2023-03-07T11:05:00,pth,1.20
2023-03-07T11:07:00,pth,2.40
2023-03-07T11:08:00,pth,1.20
2023-03-07T11:09:00,pth,1.20
2023-03-07T11:11:00,pth,3.60
2023-03-07T11:13:00,pth,3.60
2023-03-07T11:15:00,pth,2.40
2023-03-07T11:17:00,pth,6.00
2023-03-07T11:19:00,pth,4.80
2023-03-07T11:21:00,pth,4.80
2023-03-07T11:23:00,pth,4.80
2023-03-07T11:24:00,pth,2.40
2023-03-07T11:26:00,pth,4.80
2023-03-07T11:27:00,pth,1.20
2023-03-07T11:29:00,pth,3.60
2023-03-07T11:31:00,pth,2.40
2023-03-07T11:33:00,pth,3.60
2023-03-07T11:35:00,pth,4.80
2023-03-07T11:36:00,pth,7.20
2023-03-07T11:38:00,pth,15.60
2023-03-07T11:39:00,pth,7.20
2023-03-07T11:41:00,pth,16.80
2023-03-07T11:43:00,pth,15.60
2023-03-07T11:45:00,pth,15.60
2023-03-07T11:47:00,pth,15.60
2023-03-07T11:48:00,pth,8.40
2023-03-07T11:50:00,pth,15.60
2023-03-07T11:52:00,pth,15.60
2023-03-07T11:53:00,pth,8.40
2023-03-07T11:55:00,pth,16.80
2023-03-07T11:57:00,pth,16.80
2023-03-07T11:59:00,pth,15.60
2023-03-07T12:01:00,pth,15.60
2023-03-07T12:03:00,pth,16.80
2023-03-07T12:04:00,pth,8.40
2023-03-07T12:05:00,pth,7.20
2023-03-07T12:07:00,pth,15.60
2023-03-07T12:08:00,pth,7.20
2023-03-07T12:09:00,pth,6.00
2023-03-07T12:11:00,pth,12.00
2023-03-07T12:13:00,pth,15.60
2023-03-07T12:15:00,pth,9.60
2023-03-07T12:16:00,pth,8.40
2023-03-07T12:17:00,pth,7.20
2023-03-07T12:19:00,pth,10.80
2023-03-07T12:20:00,pth,7.20
2023-03-07T12:21:00,pth,8.40
2023-03-07T12:23:00,pth,10.80
2023-03-07T12:25:00,pth,14.40
2023-03-07T12:27:00,pth,12.00
2023-03-07T12:29:00,pth,13.20
2023-03-07T12:31:00,pth,13.20
2023-03-07T12:33:00,pth,10.80
2023-03-07T12:34:00,pth,6.00
2023-03-07T12:36:00,pth,4.80
2023-03-07T12:38:00,pth,4.80
2023-03-07T12:39:00,pth,2.40
2023-03-07T12:41:00,pth,4.80
2023-03-07T12:43:00,pth,4.80
2023-03-07T12:45:00,pth,4.80
2023-03-07T12:47:00,pth,4.80
2023-03-07T12:49:00,pth,2.40
2023-03-07T12:51:00,pth,2.40
2023-03-07T12:53:00,pth,2.40
2023-03-07T12:54:00,pth,1.20
2023-03-07T12:56:00,pth,3.60
2023-03-07T12:58:00,pth,2.40
2023-03-07T13:00:00,pth,3.60
2023-03-07T13:01:00,pth,1.20
2023-03-07T13:03:00,pth,2.40
2023-03-07T13:05:00,pth,3.60
2023-03-07T13:06:00,pth,2.40
2023-03-07T13:08:00,pth,4.80
2023-03-07T13:10:00,pth,4.80
2023-03-07T13:12:00,pth,3.60
2023-03-07T13:14:00,pth,4.80
2023-03-07T13:16:00,pth,3.60
2023-03-07T13:18:00,pth,2.40
2023-03-07T13:20:00,pth,2.40
2023-03-07T13:21:00,pth,2.40
2023-03-07T13:22:00,pth,1.20
2023-03-07T13:24:00,pth,2.40
2023-03-07T13:26:00,pth,2.40
2023-03-07T13:28:00,pth,2.40
2023-03-07T13:30:00,pth,3.60
2023-03-07T13:31:00,pth,1.20
2023-03-07T13:32:00,pth,3.60
2023-03-07T13:34:00,pth,4.80
2023-03-07T13:35:00,pth,2.40
2023-03-07T13:36:00,pth,2.40
2023-03-07T13:38:00,pth,6.00
2023-03-07T13:39:00,pth,2.40
2023-03-07T13:41:00,pth,3.60
2023-03-07T13:42:00,pth,1.20
2023-03-07T13:44:00,pth,3.60
2023-03-07T13:45:00,pth,1.20
2023-03-07T13:46:00,pth,1.20
2023-03-07T13:48:00,pth,2.40
2023-03-07T13:50:00,pth,3.60
2023-03-07T13:52:00,pth,2.40
2023-03-07T13:53:00,pth,1.20
2023-03-07T13:54:00,pth,1.20
2023-03-07T13:56:00,pth,4.80
2023-03-07T13:57:00,pth,2.40
2023-03-07T13:59:00,pth,4.80
2023-03-07T14:00:00,pth,2.40
2023-03-07T14:02:00,pth,4.80
2023-03-07T14:04:00,pth,4.80
2023-03-07T14:06:00,pth,4.80
2023-03-07T14:07:00,pth,1.20
2023-03-07T14:09:00,pth,3.60
2023-03-07T14:11:00,pth,2.40
2023-03-07T14:12:00,pth,1.20
2023-03-07T14:14:00,pth,3.60
2023-03-07T14:16:00,pth,3.60
2023-03-07T14:18:00,pth,2.40
2023-03-07T14:19:00,pth,1.20
2023-03-07T14:21:00,pth,4.80
2023-03-07T14:23:00,pth,4.80
2023-03-07T14:25:00,pth,4.80
2023-03-07T14:27:00,pth,6.00
2023-03-07T14:29:00,pth,4.80
2023-03-07T14:30:00,pth,2.40
2023-03-07T14:32:00,pth,2.40
2023-03-07T14:33:00,pth,1.20
2023-03-07T14:35:00,pth,2.40
2023-03-07T14:37:00,pth,3.60
2023-03-07T14:38:00,pth,1.20
2023-03-07T14:40:00,pth,3.60
2023-03-07T14:41:00,pth,1.20
2023-03-07T14:42:00,pth,1.20
2023-03-07T14:44:00,pth,6.00
2023-03-07T14:46:00,pth,4.80
2023-03-07T14:47:00,pth,3.60
2023-03-07T14:49:00,pth,7.20
2023-03-07T14:51:00,pth,4.80
2023-03-07T14:52:00,pth,2.40
2023-03-07T14:53:00,pth,2.40
2023-03-07T14:55:00,pth,4.80
2023-03-07T14:56:00,pth,1.20
2023-03-07T14:57:00,pth,1.20
2023-03-07T14:59:00,pth,2.40
2023-03-07T15:01:00,pth,3.60
2023-03-07T15:02:00,pth,1.20
2023-03-07T15:04:00,pth,2.40
2023-03-07T15:06:00,pth,3.60
2023-03-07T15:07:00,pth,2.40
2023-03-07T15:08:00,pth,2.40
2023-03-07T15:09:00,pth,1.20
2023-03-07T15:11:00,pth,4.80
2023-03-07T15:13:00,pth,4.80
2023-03-07T15:15:00,pth,4.80
2023-03-07T15:16:00,pth,2.40
2023-03-07T15:18:00,pth,4.80
2023-03-07T15:20:00,pth,3.60
2023-03-07T15:22:00,pth,3.60
2023-03-07T15:23:00,pth,1.20
2023-03-07T15:25:00,pth,2.40
2023-03-07T15:26:00,pth,2.40
2023-03-07T15:27:00,pth,1.20
2023-03-07T15:29:00,pth,2.40
2023-03-07T15:30:00,pth,2.40
2023-03-07T15:32:00,pth,4.80
2023-03-07T15:34:00,pth,4.80
2023-03-07T15:36:00,pth,4.80
2023-03-07T15:38:00,pth,4.80
2023-03-07T15:40:00,pth,3.60
2023-03-07T15:41:00,pth,2.40
2023-03-07T15:43:00,pth,2.40
2023-03-07T15:44:00,pth,1.20
2023-03-07T15:46:00,pth,3.60
2023-03-07T15:48:00,pth,2.40
2023-03-07T15:50:00,pth,3.60
2023-03-07T15:51:00,pth,2.40
2023-03-07T15:53:00,pth,4.80
2023-03-07T15:54:00,pth,3.60
2023-03-07T15:56:00,pth,6.00
2023-03-07T15:57:00,pth,2.40
2023-03-07T15:58:00,pth,2.40
2023-03-07T15:59:00,pth,2.40
2023-03-07T16:01:00,pth,6.00
2023-03-07T16:02:00,pth,2.40
2023-03-07T16:04:00,pth,4.80
2023-03-07T16:05:00,pth,1.20
2023-03-07T16:07:00,pth,3.60
2023-03-07T16:09:00,pth,2.40
2023-03-07T16:10:00,pth,2.40
2023-03-07T16:12:00,pth,2.40
2023-03-07T16:13:00,pth,2.40
2023-03-07T16:15:00,pth,3.60
2023-03-07T16:17:00,pth,4.80
2023-03-07T16:19:00,pth,3.60
2023-03-07T16:21:00,pth,4.80
2023-03-07T16:23:00,pth,4.80
2023-03-07T16:24:00,pth,2.40
2023-03-07T16:26:00,pth,4.80
2023-03-07T16:27:00,pth,2.40
2023-03-07T16:29:00,pth,4.80
2023-03-07T16:31:00,pth,3.60
2023-03-07T16:33:00,pth,2.40
2023-03-07T16:34:00,pth,1.20
2023-03-07T16:35:00,pth,2.40
2023-03-07T16:37:00,pth,3.60
2023-03-07T16:38:00,pth,1.20
2023-03-07T16:40:00,pth,2.40
2023-03-07T16:42:00,pth,4.80
2023-03-07T16:43:00,pth,2.40
2023-03-07T16:44:00,pth,2.40
2023-03-07T16:46:00,pth,3.60
2023-03-07T16:48:00,pth,4.80
2023-03-07T16:50:00,pth,4.80
2023-03-07T16:52:00,pth,4.80
2023-03-07T16:53:00,pth,2.40
2023-03-07T16:55:00,pth,4.80
2023-03-07T16:56:00,pth,1.20
2023-03-07T16:57:00,pth,1.20
2023-03-07T16:59:00,pth,3.60
2023-03-07T17:01:00,pth,2.40
2023-03-07T17:03:00,pth,3.60
2023-03-07T17:04:00,pth,1.20
2023-03-07T17:05:00,pth,1.20
2023-03-07T17:07:00,pth,4.80
2023-03-07T17:09:00,pth,4.80
2023-03-07T17:11:00,pth,4.80
2023-03-07T17:13:00,pth,4.80
2023-03-07T17:15:00,pth,4.80
2023-03-07T17:17:00,pth,6.00
2023-03-07T17:18:00,pth,2.40
2023-03-07T17:20:00,pth,3.60
2023-03-07T17:21:00,pth,1.20
2023-03-07T17:22:00,pth,2.40
2023-03-07T17:24:00,pth,2.40
2023-03-07T17:26:00,pth,3.60
2023-03-07T17:27:00,pth,1.20
2023-03-07T17:28:00,pth,1.20
2023-03-07T17:29:00,pth,1.20
2023-03-07T17:31:00,pth,4.80
2023-03-07T17:32:00,pth,4.80
2023-03-07T17:34:00,pth,8.40
2023-03-07T17:36:00,pth,9.60
2023-03-07T17:37:00,pth,4.80
2023-03-07T17:39:00,pth,8.40
2023-03-07T17:40:00,pth,4.80
2023-03-07T17:42:00,pth,8.40
2023-03-07T17:44:00,pth,8.40
2023-03-07T17:45:00,pth,4.80
2023-03-07T17:47:00,pth,6.00
2023-03-07T17:48:00,pth,2.40
2023-03-07T17:50:00,pth,3.60
2023-03-07T17:51:00,pth,1.20
2023-03-07T17:53:00,pth,3.60
2023-03-07T17:54:00,pth,1.20
2023-03-07T17:56:00,pth,2.40
2023-03-07T17:57:00,pth,2.40
2023-03-07T17:59:00,pth,4.80
2023-03-07T18:01:00,pth,4.80
2023-03-07T18:02:00,pth,2.40
2023-03-07T18:03:00,pth,2.40
2023-03-07T18:05:00,pth,3.60
2023-03-07T18:06:00,pth,2.40
2023-03-07T18:08:00,pth,4.80
2023-03-07T18:10:00,pth,4.80
2023-03-07T18:12:00,pth,3.60
2023-03-07T18:14:00,pth,2.40
2023-03-07T18:15:00,pth,1.20
2023-03-07T18:16:00,pth,1.20
2023-03-07T18:17:00,pth,2.40
2023-03-07T18:19:00,pth,4.80
2023-03-07T18:21:00,pth,3.60
2023-03-07T18:23:00,pth,4.80
2023-03-07T18:24:00,pth,2.40
2023-03-07T18:25:00,pth,2.40
2023-03-07T18:27:00,pth,4.80
2023-03-07T18:28:00,pth,3.60
2023-03-07T18:30:00,pth,4.80
2023-03-07T18:32:00,pth,4.80
2023-03-07T18:34:00,pth,3.60
2023-03-07T18:36:00,pth,3.60
2023-03-07T18:37:00,pth,1.20
2023-03-07T18:39:00,pth,1.20
2023-03-07T18:40:00,pth,1.20
2023-03-07T18:42:00,pth,2.40
2023-03-07T18:44:00,pth,2.40
2023-03-07T18:46:00,pth,3.60
2023-03-07T18:47:00,pth,2.40
2023-03-07T18:48:00,pth,2.40
2023-03-07T18:49:00,pth,1.20
2023-03-07T18:51:00,pth,4.80
2023-03-07T18:52:00,pth,2.40
2023-03-07T18:53:00,pth,1.20
2023-03-07T18:55:00,pth,4.80
2023-03-07T18:56:00,pth,1.20
2023-03-07T18:58:00,pth,4.80
2023-03-07T19:00:00,pth,3.60
2023-03-07T19:02:00,pth,2.40
2023-03-07T19:04:00,pth,2.40
2023-03-07T19:06:00,pth,2.40
2023-03-07T19:08:00,pth,2.40
2023-03-07T19:10:00,pth,4.80
2023-03-07T19:11:00,pth,2.40
2023-03-07T19:12:00,pth,1.20
2023-03-07T19:14:00,pth,4.80
2023-03-07T19:16:00,pth,4.80
2023-03-07T19:17:00,pth,2.40
2023-03-07T19:19:00,pth,4.80
2023-03-07T19:20:00,pth,2.40
2023-03-07T19:22:00,pth,4.80
2023-03-07T19:23:00,pth,2.40
2023-03-07T19:25:00,pth,3.60
2023-03-07T19:27:00,pth,2.40
2023-03-07T19:28:00,pth,2.40
2023-03-07T19:29:00,pth,1.20
2023-03-07T19:30:00,pth,1.20
2023-03-07T19:32:00,pth,2.40
2023-03-07T19:34:00,pth,3.60
2023-03-07T19:36:00,pth,3.60
2023-03-07T19:37:00,pth,2.40
2023-03-07T19:39:00,pth,3.60
2023-03-07T19:40:00,pth,2.40
2023-03-07T19:41:00,pth,2.40
2023-03-07T19:42:00,pth,2.40
2023-03-07T19:44:00,pth,3.60
2023-03-07T19:46:00,pth,4.80
2023-03-07T19:48:00,pth,4.80
2023-03-07T19:50:00,pth,4.80
2023-03-07T19:51:00,pth,2.40
2023-03-07T19:53:00,pth,2.40
2023-03-07T19:55:00,pth,2.40
2023-03-07T19:57:00,pth,2.40
2023-03-07T19:58:00,pth,1.20
2023-03-07T20:00:00,pth,2.40
2023-03-07T20:02:00,pth,3.60
2023-03-07T20:04:00,pth,4.80
2023-03-07T20:06:00,pth,3.60
2023-03-07T20:08:00,pth,4.80
2023-03-07T20:10:00,pth,4.80
2023-03-07T20:11:00,pth,1.20
2023-03-07T20:13:00,pth,4.80
2023-03-07T20:15:00,pth,4.80
2023-03-07T20:17:00,pth,2.40
2023-03-07T20:19:00,pth,2.40
2023-03-07T20:20:00,pth,1.20
2023-03-07T20:22:00,pth,2.40
2023-03-07T20:24:00,pth,3.60
2023-03-07T20:25:00,pth,1.20
2023-03-07T20:27:00,pth,4.80
2023-03-07T20:28:00,pth,2.40
2023-03-07T20:30:00,pth,6.00
2023-03-07T20:31:00,pth,2.40
2023-03-07T20:33:00,pth,4.80
2023-03-07T20:34:00,pth,2.40
2023-03-07T20:36:00,pth,4.80
2023-03-07T20:38:00,pth,4.80
2023-03-07T20:39:00,pth,2.40
2023-03-07T20:41:00,pth,3.60
2023-03-07T20:43:00,pth,3.60
2023-03-07T20:44:00,pth,1.20
2023-03-07T20:45:00,pth,1.20
2023-03-07T20:47:00,pth,2.40
2023-03-07T20:49:00,pth,2.40
2023-03-07T20:51:00,pth,4.80
2023-03-07T20:52:00,pth,2.40
2023-03-07T20:54:00,pth,4.80
2023-03-07T20:56:00,pth,4.80
2023-03-07T20:58:00,pth,4.80
2023-03-07T21:00:00,pth,4.80
2023-03-07T21:02:00,pth,4.80
2023-03-07T21:04:00,pth,4.80
2023-03-07T21:05:00,pth,1.20
2023-03-07T21:07:00,pth,3.60
2023-03-07T21:09:00,pth,3.60
2023-03-07T21:10:00,pth,1.20
2023-03-07T21:11:00,pth,1.20
2023-03-07T21:13:00,pth,2.40
2023-03-07T21:14:00,pth,2.40
2023-03-07T21:16:00,pth,4.80
2023-03-07T21:18:00,pth,4.80
2023-03-07T21:20:00,pth,6.00
2023-03-07T21:22:00,pth,4.80
2023-03-07T21:23:00,pth,2.40
2023-03-07T21:25:00,pth,6.00
2023-03-07T21:26:00,pth,2.40
2023-03-07T21:28:00,pth,4.80
2023-03-07T21:30:00,pth,2.40
2023-03-07T21:32:00,pth,2.40
2023-03-07T21:34:00,pth,3.60
2023-03-07T21:36:00,pth,2.40
2023-03-07T21:37:00,pth,1.20
2023-03-07T21:39:00,pth,4.80
2023-03-07T21:40:00,pth,2.40
2023-03-07T21:41:00,pth,3.60
2023-03-07T21:43:00,pth,6.00
2023-03-07T21:45:00,pth,8.40
2023-03-07T21:46:00,pth,2.40
2023-03-07T21:48:00,pth,6.00
2023-03-07T21:49:00,pth,3.60
2023-03-07T21:51:00,pth,4.80
2023-03-07T21:53:00,pth,4.80
2023-03-07T21:55:00,pth,3.60
2023-03-07T21:56:00,pth,1.20
2023-03-07T21:57:00,pth,2.40
2023-03-07T21:59:00,pth,2.40
2023-03-07T22:01:00,pth,3.60
2023-03-07T22:02:00,pth,1.20
2023-03-07T22:04:00,pth,6.00
2023-03-07T22:06:00,pth,6.00
2023-03-07T22:07:00,pth,2.40
2023-03-07T22:08:00,pth,3.60
2023-03-07T22:10:00,pth,4.80
2023-03-07T22:12:00,pth,6.00
2023-03-07T22:14:00,pth,4.80
2023-03-07T22:16:00,pth,6.00
2023-03-07T22:17:00,pth,2.40
2023-03-07T22:18:00,pth,2.40
2023-03-07T22:20:00,pth,3.60
2023-03-07T22:21:00,pth,1.20
2023-03-07T22:23:00,pth,3.60
2023-03-07T22:24:00,pth,2.40
2023-03-07T22:26:00,pth,2.40
2023-03-07T22:28:00,pth,4.80
2023-03-07T22:29:00,pth,2.40
2023-03-07T22:31:00,pth,6.00
2023-03-07T22:32:00,pth,3.60
2023-03-07T22:33:00,pth,2.40
2023-03-07T22:35:00,pth,6.00
2023-03-07T22:36:00,pth,2.40
2023-03-07T22:38:00,pth,7.20
2023-03-07T22:39:00,pth,2.40
2023-03-07T22:40:00,pth,3.60
2023-03-07T22:42:00,pth,3.60
2023-03-07T22:43:00,pth,2.40
2023-03-07T22:45:00,pth,3.60
2023-03-07T22:46:00,pth,1.20